QPF
0.00 0.00 0.00 0.00 0.00 0.00 0.00 0.00 0.00 0.00 0.01 0.01 0.02 0.03 0.04 0.05 0.06 0.07 0.07 0.07 0.06 0.05 0.03 0.02 0.01 0.00 0.00 0.00 0.00 0.00 0.00 0.01 0.01 0.00 0.00 0.01 0.02 0.01 0.01 0.02 0.02 0.01 0.01
0.00 0.00 0.00 0.00 0.00 0.00 0.00 0.00 0.00 0.00 0.00 0.00 0.00 0.01 0.01 0.02 0.03 0.03 0.05 0.06 0.07 0.07 0.06 0.05 0.03 0.01 0.00 0.00 0.00 0.00 0.00 0.01 0.01 0.01 0.01 0.02 0.02 0.02 0.01 0.02 0.02 0.01 0.01
0.00 0.00 0.00 0.00 0.00 0.00 0.00 0.00 0.00 0.00 0.00 0.00 0.00 0.00 0.00 0.01 0.01 0.01 0.01 0.02 0.03 0.04 0.05 0.05 0.04 0.03 0.01 0.01 0.00 0.00 0.00 0.00 0.01 0.01 0.01 0.02 0.03 0.03 0.03 0.03 0.03 0.02 0.01
0.00 0.00 0.00 0.00 0.00 0.00 0.00 0.00 0.00 0.00 0.00 0.00 0.00 0.00 0.00 0.00 0.00 0.01 0.01 0.01 0.01 0.01 0.01 0.02 0.03 0.03 0.02 0.02 0.01 0.00 0.00 0.00 0.01 0.02 0.02 0.03 0.04 0.04 0.04 0.03 0.03 0.03 0.03
0.00 0.00 0.00 0.00 0.00 0.00 0.00 0.00 0.00 0.00 0.00 0.00 0.00 0.00 0.00 0.00 0.00 0.00 0.00 0.01 0.01 0.01 0.01 0.01 0.01 0.01 0.01 0.02 0.02 0.01 0.01 0.01 0.01 0.02 0.03 0.04 0.05 0.06 0.05 0.03 0.02 0.02 0.03
0.00 0.00 0.00 0.00 0.00 0.00 0.00 0.00 0.00 0.00 0.00 0.00 0.00 0.00 0.00 0.00 0.00 0.00 0.00 0.00 0.00 0.01 0.01 0.01 0.01 0.01 0.01 0.01 0.01 0.01 0.01 0.01 0.01 0.02 0.03 0.03 0.03 0.03 0.03 0.04 0.03 0.02 0.03
0.00 0.00 0.00 0.01 0.00 0.00 0.00 0.00 0.00 0.00 0.00 0.00 0.00 0.00 0.00 0.00 0.00 0.00 0.00 0.00 0.00 0.00 0.01 0.01 0.01 0.02 0.02 0.02 0.02 0.02 0.01 0.01 0.01 0.02 0.02 0.02 0.03 0.02 0.03 0.04 0.05 0.04 0.03
0.00 0.00 0.01 0.01 0.01 0.01 0.01 0.01 0.01 0.01 0.00 0.00 0.00 0.00 0.00 0.00 0.00 0.00 0.00 0.00 0.00 0.00 0.00 0.01 0.01 0.02 0.02 0.03 0.03 0.02 0.02 0.01 0.01 0.01 0.02 0.03 0.04 0.04 0.04 0.05 0.06 0.05 0.04
0.01 0.01 0.02 0.02 0.03 0.03 0.02 0.02 0.01 0.01 0.01 0.00 0.00 0.00 0.00 0.00 0.00 0.00 0.00 0.00 0.00 0.00 0.01 0.01 0.01 0.02 0.03 0.04 0.04 0.03 0.03 0.02 0.02 0.02 0.03 0.05 0.06 0.05 0.05 0.04 0.04 0.04 0.03
0.02 0.02 0.03 0.03 0.03 0.03 0.03 0.03 0.02 0.02 0.01 0.01 0.00 0.00 0.00 0.00 0.00 0.00 0.00 0.00 0.00 0.01 0.02 0.02 0.02 0.02 0.03 0.04 0.04 0.03 0.03 0.02 0.02 0.02 0.03 0.05 0.07 0.07 0.07 0.05 0.04 0.03 0.02
0.02 0.02 0.03 0.04 0.04 0.04 0.04 0.03 0.03 0.03 0.02 0.01 0.01 0.00 0.00 0.00 0.00 0.00 0.00 0.00 0.00 0.01 0.03 0.04 0.04 0.05 0.05 0.05 0.05 0.04 0.04 0.04 0.03 0.03 0.03 0.05 0.06 0.08 0.08 0.07 0.05 0.04 0.03
0.03 0.03 0.03 0.04 0.05 0.05 0.05 0.04 0.04 0.04 0.04 0.02 0.01 0.01 0.00 0.00 0.00 0.00 0.00 0.00 0.01 0.01 0.02 0.05 0.07 0.09 0.10 0.09 0.08 0.07 0.07 0.06 0.05 0.05 0.05 0.06 0.08 0.09 0.08 0.08 0.07 0.05 0.04
0.04 0.04 0.04 0.04 0.05 0.06 0.06 0.05 0.04 0.03 0.03 0.02 0.02 0.01 0.01 0.00 0.00 0.00 0.00 0.01 0.01 0.01 0.01 0.04 0.08 0.11 0.14 0.14 0.11 0.10 0.10 0.09 0.07 0.06 0.06 0.07 0.07 0.06 0.06 0.07 0.07 0.06 0.04
0.05 0.04 0.04 0.05 0.05 0.05 0.05 0.05 0.04 0.04 0.03 0.02 0.02 0.01 0.01 0.01 0.00 0.00 0.01 0.01 0.01 0.01 0.02 0.04 0.09 0.15 0.20 0.21 0.16 0.11 0.11 0.12 0.11 0.08 0.07 0.07 0.07 0.07 0.07 0.06 0.06 0.05 0.04
0.05 0.05 0.05 0.05 0.05 0.05 0.06 0.06 0.05 0.04 0.04 0.03 0.02 0.01 0.01 0.01 0.00 0.00 0.01 0.01 0.02 0.02 0.03 0.07 0.12 0.21 0.27 0.27 0.22 0.15 0.14 0.16 0.14 0.12 0.08 0.07 0.08 0.08 0.07 0.06 0.04 0.03 0.02
0.06 0.06 0.05 0.05 0.05 0.06 0.06 0.05 0.05 0.04 0.04 0.03 0.02 0.02 0.01 0.01 0.01 0.00 0.01 0.02 0.03 0.03 0.04 0.09 0.17 0.24 0.29 0.31 0.25 0.19 0.17 0.16 0.14 0.13 0.10 0.07 0.07 0.07 0.06 0.05 0.03 0.02 0.02
0.07 0.07 0.06 0.06 0.06 0.06 0.06 0.05 0.06 0.05 0.03 0.02 0.02 0.01 0.01 0.01 0.01 0.01 0.01 0.04 0.04 0.03 0.05 0.12 0.21 0.26 0.30 0.32 0.26 0.19 0.16 0.15 0.14 0.12 0.10 0.07 0.06 0.05 0.05 0.04 0.03 0.02 0.02
0.07 0.06 0.06 0.06 0.07 0.07 0.06 0.05 0.04 0.05 0.04 0.03 0.02 0.01 0.01 0.01 0.01 0.02 0.02 0.03 0.03 0.03 0.08 0.16 0.23 0.27 0.29 0.29 0.25 0.17 0.14 0.13 0.12 0.11 0.10 0.06 0.04 0.03 0.03 0.03 0.02 0.01 0.01
0.07 0.05 0.05 0.04 0.05 0.05 0.04 0.04 0.04 0.03 0.04 0.04 0.03 0.02 0.01 0.01 0.01 0.02 0.03 0.02 0.03 0.05 0.11 0.17 0.23 0.26 0.26 0.24 0.21 0.15 0.11 0.10 0.09 0.09 0.06 0.04 0.02 0.02 0.02 0.02 0.01 0.01 0.00
0.07 0.07 0.05 0.04 0.03 0.02 0.03 0.04 0.03 0.02 0.03 0.04 0.04 0.02 0.01 0.01 0.01 0.01 0.02 0.02 0.04 0.08 0.14 0.19 0.22 0.23 0.21 0.19 0.16 0.12 0.09 0.07 0.07 0.06 0.04 0.03 0.01 0.01 0.01 0.01 0.01 0.00 0.00
0.07 0.05 0.04 0.03 0.02 0.02 0.02 0.03 0.02 0.02 0.02 0.04 0.04 0.03 0.02 0.02 0.01 0.01 0.02 0.03 0.06 0.10 0.14 0.17 0.18 0.17 0.15 0.13 0.12 0.09 0.06 0.05 0.05 0.03 0.03 0.02 0.01 0.00 0.00 0.00 0.00 0.00 0.00
0.07 0.05 0.02 0.02 0.02 0.02 0.02 0.02 0.02 0.02 0.02 0.03 0.03 0.02 0.02 0.01 0.01 0.01 0.02 0.04 0.07 0.11 0.11 0.11 0.12 0.12 0.11 0.10 0.08 0.05 0.04 0.03 0.03 0.01 0.01 0.01 0.00 0.00 0.00 0.00 0.00 0.00 0.00
0.06 0.04 0.02 0.02 0.02 0.03 0.03 0.02 0.02 0.02 0.02 0.02 0.01 0.01 0.01 0.00 0.00 0.01 0.03 0.05 0.08 0.10 0.07 0.07 0.09 0.10 0.08 0.06 0.04 0.02 0.02 0.02 0.02 0.01 0.00 0.00 0.00 0.00 0.00 0.00 0.00 0.00 0.00
0.04 0.03 0.02 0.02 0.01 0.02 0.03 0.02 0.02 0.02 0.01 0.01 0.01 0.01 0.00 0.00 0.01 0.02 0.04 0.06 0.07 0.06 0.05 0.06 0.07 0.07 0.05 0.03 0.02 0.01 0.01 0.00 0.00 0.00 0.00 0.00 0.00 0.00 0.00 0.00 0.00 0.00 0.00
0.02 0.03 0.03 0.02 0.02 0.01 0.01 0.02 0.01 0.01 0.01 0.01 0.01 0.00 0.00 0.01 0.02 0.03 0.05 0.06 0.06 0.05 0.04 0.05 0.06 0.04 0.02 0.02 0.01 0.00 0.00 0.00 0.00 0.00 0.00 0.00 0.00 0.00 0.00 0.00 0.00 0.00 0.00
0.02 0.02 0.03 0.03 0.02 0.02 0.02 0.01 0.01 0.01 0.00 0.00 0.00 0.01 0.01 0.02 0.03 0.04 0.05 0.05 0.05 0.04 0.03 0.03 0.03 0.02 0.01 0.01 0.00 0.00 0.00 0.00 0.00 0.00 0.00 0.00 0.00 0.00 0.00 0.00 0.00 0.00 0.00
MSLP
1010.66 1010.59 1010.56 1010.54 1010.49 1010.41 1010.31 1010.19 1010.08 1009.98 1009.91 1009.88 1009.87 1009.86 1009.86 1009.84 1009.82 1009.80 1009.79 1009.81 1009.87 1009.97 1010.11 1010.28 1010.47 1010.66 1010.84 1011.00 1011.14 1011.27 1011.39 1011.52 1011.65 1011.79 1011.94 1012.07 1012.19 1012.29 1012.38 1012.45 1012.51 1012.58 1012.65
1010.34 1010.21 1010.10 1009.99 1009.89 1009.77 1009.66 1009.56 1009.49 1009.45 1009.45 1009.48 1009.53 1009.58 1009.62 1009.63 1009.62 1009.60 1009.57 1009.55 1009.56 1009.60 1009.68 1009.78 1009.90 1010.03 1010.17 1010.31 1010.45 1010.61 1010.79 1011.00 1011.24 1011.51 1011.78 1012.05 1012.30 1012.53 1012.72 1012.88 1013.00 1013.11 1013.20
1010.01 1009.78 1009.56 1009.36 1009.16 1008.99 1008.84 1008.73 1008.69 1008.70 1008.77 1008.87 1008.99 1009.11 1009.20 1009.25 1009.27 1009.26 1009.24 1009.21 1009.20 1009.21 1009.25 1009.31 1009.38 1009.46 1009.55 1009.66 1009.78 1009.94 1010.14 1010.39 1010.69 1011.04 1011.41 1011.80 1012.18 1012.52 1012.83 1013.09 1013.31 1013.49 1013.64
1009.63 1009.29 1008.96 1008.64 1008.34 1008.09 1007.89 1007.78 1007.75 1007.80 1007.92 1008.09 1008.27 1008.45 1008.59 1008.70 1008.75 1008.78 1008.78 1008.77 1008.77 1008.79 1008.82 1008.86 1008.91 1008.96 1009.01 1009.07 1009.15 1009.28 1009.45 1009.70 1010.01 1010.39 1010.83 1011.30 1011.77 1012.23 1012.66 1013.04 1013.37 1013.64 1013.87
1009.17 1008.74 1008.29 1007.86 1007.46 1007.13 1006.89 1006.75 1006.73 1006.82 1006.98 1007.20 1007.44 1007.66 1007.85 1008.00 1008.09 1008.15 1008.19 1008.22 1008.26 1008.31 1008.37 1008.42 1008.47 1008.51 1008.53 1008.55 1008.57 1008.64 1008.75 1008.95 1009.23 1009.60 1010.05 1010.56 1011.11 1011.66 1012.20 1012.69 1013.14 1013.53 1013.86
1008.63 1008.11 1007.57 1007.04 1006.57 1006.18 1005.90 1005.75 1005.74 1005.84 1006.03 1006.29 1006.56 1006.81 1007.03 1007.20 1007.32 1007.42 1007.50 1007.58 1007.67 1007.77 1007.88 1007.98 1008.05 1008.09 1008.10 1008.07 1008.04 1008.02 1008.06 1008.18 1008.39 1008.72 1009.15 1009.67 1010.26 1010.88 1011.51 1012.11 1012.68 1013.19 1013.63
1008.02 1007.42 1006.82 1006.23 1005.71 1005.28 1004.99 1004.83 1004.83 1004.94 1005.15 1005.41 1005.69 1005.94 1006.16 1006.34 1006.48 1006.60 1006.72 1006.85 1007.00 1007.17 1007.35 1007.50 1007.62 1007.68 1007.68 1007.62 1007.53 1007.45 1007.40 1007.42 1007.56 1007.82 1008.21 1008.72 1009.33 1010.00 1010.70 1011.40 1012.07 1012.69 1013.25
1007.34 1006.71 1006.08 1005.47 1004.93 1004.49 1004.20 1004.04 1004.04 1004.15 1004.35 1004.60 1004.86 1005.09 1005.30 1005.46 1005.60 1005.73 1005.88 1006.06 1006.28 1006.52 1006.76 1006.98 1007.15 1007.24 1007.25 1007.17 1007.04 1006.90 1006.78 1006.73 1006.79 1006.99 1007.34 1007.83 1008.45 1009.15 1009.90 1010.67 1011.43 1012.14 1012.80
1006.64 1006.01 1005.37 1004.77 1004.24 1003.82 1003.53 1003.38 1003.37 1003.47 1003.64 1003.86 1004.08 1004.28 1004.44 1004.58 1004.72 1004.86 1005.03 1005.26 1005.53 1005.83 1006.14 1006.42 1006.64 1006.77 1006.79 1006.71 1006.56 1006.38 1006.21 1006.11 1006.13 1006.29 1006.62 1007.10 1007.72 1008.44 1009.23 1010.06 1010.87 1011.65 1012.38
1005.95 1005.33 1004.72 1004.14 1003.63 1003.23 1002.95 1002.80 1002.77 1002.85 1002.99 1003.15 1003.33 1003.48 1003.61 1003.73 1003.85 1004.00 1004.21 1004.47 1004.79 1005.15 1005.51 1005.84 1006.10 1006.26 1006.30 1006.23 1006.08 1005.89 1005.71 1005.60 1005.60 1005.76 1006.08 1006.58 1007.21 1007.96 1008.78 1009.62 1010.47 1011.28 1012.04
1005.28 1004.69 1004.10 1003.55 1003.06 1002.68 1002.40 1002.24 1002.19 1002.23 1002.32 1002.45 1002.57 1002.68 1002.79 1002.90 1003.03 1003.20 1003.43 1003.74 1004.10 1004.50 1004.90 1005.26 1005.55 1005.72 1005.78 1005.73 1005.59 1005.42 1005.26 1005.17 1005.20 1005.39 1005.75 1006.27 1006.93 1007.70 1008.54 1009.40 1010.25 1011.06 1011.82
1004.64 1004.07 1003.50 1002.97 1002.50 1002.12 1001.83 1001.66 1001.58 1001.57 1001.62 1001.70 1001.80 1001.89 1001.99 1002.11 1002.26 1002.47 1002.75 1003.09 1003.49 1003.91 1004.33 1004.71 1005.00 1005.18 1005.24 1005.20 1005.09 1004.95 1004.84 1004.80 1004.90 1005.14 1005.56 1006.14 1006.84 1007.64 1008.49 1009.35 1010.18 1010.97 1011.70
1004.02 1003.45 1002.89 1002.36 1001.89 1001.50 1001.20 1001.00 1000.89 1000.85 1000.87 1000.93 1001.01 1001.11 1001.23 1001.39 1001.58 1001.84 1002.17 1002.55 1002.97 1003.41 1003.83 1004.19 1004.46 1004.63 1004.69 1004.66 1004.57 1004.48 1004.43 1004.47 1004.64 1004.98 1005.47 1006.11 1006.87 1007.70 1008.57 1009.41 1010.22 1010.97 1011.65
1003.41 1002.82 1002.24 1001.70 1001.22 1000.82 1000.50 1000.28 1000.14 1000.08 1000.09 1000.15 1000.24 1000.37 1000.54 1000.75 1001.02 1001.33 1001.70 1002.12 1002.56 1002.99 1003.39 1003.71 1003.95 1004.09 1004.13 1004.10 1004.04 1003.99 1004.01 1004.14 1004.40 1004.83 1005.41 1006.13 1006.94 1007.80 1008.68 1009.51 1010.29 1010.99 1011.62
1002.77 1002.15 1001.55 1000.99 1000.50 1000.09 999.76 999.53 999.39 999.33 999.35 999.42 999.56 999.74 999.97 1000.25 1000.57 1000.95 1001.36 1001.79 1002.23 1002.64 1002.99 1003.27 1003.46 1003.55 1003.57 1003.54 1003.50 1003.50 1003.58 1003.79 1004.15 1004.67 1005.34 1006.12 1006.98 1007.88 1008.76 1009.58 1010.34 1011.00 1011.58
1002.10 1001.45 1000.83 1000.26 999.77 999.36 999.04 998.83 998.70 998.67 998.72 998.84 999.03 999.27 999.56 999.90 1000.28 1000.69 1001.12 1001.55 1001.96 1002.33 1002.63 1002.84 1002.97 1003.02 1003.01 1002.98 1002.97 1003.01 1003.17 1003.46 1003.90 1004.50 1005.23 1006.08 1006.98 1007.89 1008.78 1009.60 1010.33 1010.97 1011.52
1001.42 1000.74 1000.11 999.55 999.08 998.70 998.42 998.25 998.18 998.19 998.29 998.47 998.71 999.00 999.34 999.72 1000.12 1000.54 1000.97 1001.37 1001.73 1002.04 1002.27 1002.42 1002.50 1002.51 1002.48 1002.46 1002.48 1002.58 1002.80 1003.16 1003.67 1004.34 1005.13 1006.01 1006.93 1007.86 1008.74 1009.55 1010.27 1010.90 1011.44
1000.75 1000.06 999.45 998.92 998.50 998.18 997.97 997.87 997.86 997.95 998.11 998.34 998.63 998.95 999.32 999.70 1000.10 1000.50 1000.88 1001.22 1001.52 1001.75 1001.91 1002.00 1002.04 1002.03 1002.00 1002.01 1002.07 1002.23 1002.51 1002.94 1003.52 1004.23 1005.05 1005.95 1006.88 1007.81 1008.68 1009.48 1010.19 1010.82 1011.36
1000.14 999.46 998.89 998.42 998.07 997.84 997.72 997.71 997.79 997.95 998.18 998.46 998.77 999.11 999.47 999.83 1000.18 1000.52 1000.82 1001.09 1001.30 1001.46 1001.55 1001.60 1001.61 1001.60 1001.60 1001.65 1001.78 1002.01 1002.36 1002.85 1003.48 1004.22 1005.06 1005.96 1006.88 1007.78 1008.63 1009.42 1010.12 1010.75 1011.30
999.63 998.99 998.47 998.08 997.82 997.70 997.68 997.77 997.94 998.18 998.46 998.77 999.10 999.43 999.76 1000.06 1000.34 1000.59 1000.80 1000.97 1001.09 1001.17 1001.21 1001.23 1001.24 1001.25 1001.31 1001.42 1001.62 1001.93 1002.36 1002.91 1003.58 1004.34 1005.18 1006.05 1006.94 1007.81 1008.63 1009.39 1010.08 1010.71 1011.27
999.26 998.67 998.22 997.91 997.75 997.72 997.81 997.99 998.24 998.54 998.87 999.21 999.53 999.84 1000.11 1000.34 1000.53 1000.67 1000.78 1000.85 1000.89 1000.91 1000.91 1000.92 1000.94 1001.01 1001.13 1001.32 1001.61 1002.01 1002.50 1003.11 1003.80 1004.57 1005.39 1006.24 1007.08 1007.90 1008.67 1009.40 1010.07 1010.69 1011.25
999.08 998.53 998.14 997.90 997.82 997.87 998.04 998.30 998.62 998.97 999.33 999.67 999.98 1000.25 1000.46 1000.61 1000.71 1000.76 1000.77 1000.76 1000.73 1000.69 1000.67 1000.69 1000.74 1000.87 1001.06 1001.35 1001.72 1002.20 1002.76 1003.41 1004.12 1004.88 1005.68 1006.48 1007.26 1008.03 1008.75 1009.43 1010.06 1010.66 1011.22
999.08 998.57 998.22 998.04 998.00 998.11 998.33 998.63 998.99 999.36 999.73 1000.08 1000.36 1000.59 1000.75 1000.83 1000.86 1000.84 1000.77 1000.69 1000.61 1000.55 1000.52 1000.55 1000.65 1000.83 1001.10 1001.47 1001.92 1002.46 1003.08 1003.76 1004.47 1005.22 1005.98 1006.72 1007.45 1008.15 1008.81 1009.44 1010.03 1010.59 1011.13
999.28 998.79 998.46 998.28 998.27 998.39 998.62 998.93 999.29 999.67 1000.04 1000.36 1000.63 1000.83 1000.95 1000.99 1000.97 1000.89 1000.78 1000.66 1000.55 1000.48 1000.46 1000.51 1000.65 1000.88 1001.21 1001.64 1002.16 1002.75 1003.40 1004.09 1004.80 1005.52 1006.23 1006.92 1007.58 1008.21 1008.81 1009.38 1009.92 1010.44 1010.94
999.65 999.16 998.82 998.63 998.59 998.69 998.89 999.18 999.52 999.87 1000.22 1000.53 1000.78 1000.95 1001.05 1001.07 1001.03 1000.93 1000.80 1000.67 1000.56 1000.49 1000.48 1000.56 1000.73 1001.01 1001.38 1001.85 1002.40 1003.01 1003.67 1004.35 1005.05 1005.73 1006.39 1007.02 1007.62 1008.18 1008.72 1009.23 1009.72 1010.19 1010.65
1000.18 999.67 999.30 999.08 998.99 999.03 999.18 999.41 999.69 1000.01 1000.31 1000.59 1000.82 1000.99 1001.08 1001.10 1001.06 1000.97 1000.85 1000.73 1000.63 1000.58 1000.59 1000.69 1000.88 1001.18 1001.57 1002.06 1002.62 1003.23 1003.87 1004.53 1005.19 1005.83 1006.44 1007.01 1007.54 1008.05 1008.52 1008.97 1009.41 1009.84 1010.25
Thickness
5620 5618 5614 5612 5608 5605 5602 5602 5601 5601 5602 5603 5605 5607 5610 5614 5618 5621 5625 5629 5632 5637 5641 5646 5649 5652 5655 5658 5661 5664 5667 5669 5671 5676 5679 5681 5682 5681 5681 5680 5679 5678 5678
5605 5602 5599 5596 5592 5588 5586 5586 5584 5583 5583 5584 5586 5588 5591 5595 5599 5603 5606 5612 5616 5621 5626 5632 5637 5641 5645 5649 5652 5656 5660 5663 5666 5669 5672 5674 5675 5675 5674 5672 5671 5669 5668
5590 5586 5583 5580 5577 5576 5574 5573 5571 5569 5569 5568 5569 5570 5573 5576 5580 5584 5588 5593 5599 5605 5611 5617 5623 5628 5634 5638 5642 5647 5652 5656 5660 5663 5666 5668 5669 5668 5666 5664 5662 5660 5659
5576 5572 5568 5567 5565 5565 5564 5562 5560 5559 5558 5557 5557 5557 5558 5560 5563 5566 5571 5575 5581 5588 5595 5602 5609 5615 5622 5627 5632 5638 5643 5648 5652 5656 5660 5662 5663 5662 5661 5658 5654 5652 5651
5563 5559 5557 5556 5554 5553 5551 5551 5551 5550 5550 5549 5548 5548 5547 5548 5550 5551 5554 5559 5564 5570 5578 5586 5594 5603 5610 5616 5622 5629 5634 5640 5645 5650 5654 5657 5658 5657 5656 5653 5649 5645 5642
5550 5547 5545 5542 5541 5540 5540 5540 5540 5541 5541 5540 5540 5540 5540 5541 5543 5543 5543 5545 5549 5553 5561 5570 5578 5588 5597 5605 5613 5620 5626 5633 5639 5645 5650 5654 5655 5655 5652 5649 5645 5641 5637
5538 5535 5532 5530 5529 5528 5529 5529 5530 5531 5532 5532 5533 5534 5535 5535 5536 5536 5536 5536 5538 5541 5546 5554 5563 5574 5583 5592 5601 5610 5618 5626 5634 5641 5646 5651 5653 5653 5650 5645 5642 5640 5636
5528 5524 5521 5518 5517 5516 5516 5517 5518 5520 5521 5523 5525 5527 5528 5531 5531 5531 5531 5531 5531 5533 5537 5542 5550 5559 5569 5579 5589 5600 5610 5619 5628 5635 5642 5648 5650 5650 5649 5646 5640 5634 5628
5518 5514 5511 5508 5506 5504 5504 5505 5507 5508 5511 5513 5517 5520 5521 5524 5526 5527 5526 5526 5526 5528 5530 5534 5540 5548 5558 5567 5578 5590 5601 5612 5620 5628 5635 5640 5643 5644 5643 5638 5633 5630 5623
5509 5504 5501 5497 5495 5494 5494 5495 5496 5498 5501 5504 5508 5512 5514 5518 5520 5521 5521 5521 5521 5523 5525 5528 5533 5540 5547 5556 5567 5580 5592 5604 5612 5620 5627 5632 5635 5637 5638 5638 5636 5631 5624
5500 5495 5491 5488 5485 5485 5485 5485 5486 5488 5491 5495 5499 5503 5507 5510 5513 5515 5516 5516 5518 5519 5521 5524 5528 5533 5539 5547 5558 5571 5584 5594 5603 5612 5620 5625 5629 5630 5630 5631 5632 5631 5626
5492 5488 5484 5481 5479 5480 5478 5478 5479 5480 5482 5486 5490 5495 5499 5503 5506 5510 5512 5513 5514 5516 5518 5521 5524 5527 5532 5540 5550 5562 5573 5583 5595 5605 5613 5619 5623 5625 5625 5624 5623 5622 5623
5488 5484 5480 5477 5475 5473 5472 5472 5472 5473 5476 5480 5483 5488 5493 5497 5500 5504 5507 5509 5511 5512 5514 5517 5519 5522 5527 5534 5544 5554 5565 5577 5589 5600 5608 5614 5617 5619 5617 5615 5613 5612 5611
5486 5481 5477 5473 5471 5469 5467 5467 5468 5469 5471 5475 5478 5483 5487 5491 5495 5499 5502 5505 5507 5508 5509 5511 5513 5517 5522 5529 5539 5549 5560 5573 5585 5595 5602 5606 5608 5609 5610 5610 5608 5606 5602
5484 5480 5475 5471 5468 5466 5465 5464 5465 5467 5469 5472 5476 5479 5483 5488 5493 5495 5499 5501 5504 5505 5505 5506 5509 5514 5519 5526 5535 5545 5557 5568 5578 5587 5593 5598 5602 5603 5603 5603 5602 5601 5599
5484 5479 5474 5470 5467 5465 5463 5463 5463 5464 5467 5469 5472 5476 5481 5485 5489 5491 5494 5497 5498 5499 5501 5505 5508 5511 5517 5525 5533 5543 5553 5564 5574 5582 5588 5593 5597 5597 5596 5596 5596 5596 5594
5483 5479 5475 5471 5468 5465 5464 5463 5464 5464 5465 5467 5470 5473 5477 5482 5485 5487 5490 5491 5493 5495 5499 5503 5506 5510 5516 5523 5531 5540 5550 5561 5570 5578 5583 5587 5590 5590 5590 5590 5590 5590 5588
5485 5481 5477 5473 5469 5467 5465 5464 5464 5465 5467 5468 5469 5472 5475 5478 5481 5484 5485 5488 5490 5492 5497 5500 5504 5508 5514 5522 5530 5538 5547 5557 5565 5572 5578 5581 5584 5585 5585 5584 5584 5584 5582
5489 5484 5480 5476 5472 5469 5467 5466 5466 5467 5468 5469 5470 5471 5473 5475 5477 5479 5482 5488 5491 5493 5495 5498 5501 5506 5513 5520 5528 5537 5545 5554 5561 5568 5572 5575 5578 5579 5579 5578 5578 5574 5577
5494 5490 5486 5481 5477 5474 5472 5471 5470 5470 5470 5471 5472 5472 5472 5475 5478 5479 5482 5487 5490 5492 5494 5497 5501 5507 5513 5520 5528 5537 5545 5552 5558 5564 5567 5569 5572 5574 5574 5573 5573 5572 5573
5499 5495 5492 5487 5483 5480 5477 5476 5475 5474 5474 5475 5475 5475 5476 5479 5481 5483 5484 5487 5490 5493 5496 5499 5504 5509 5515 5522 5530 5537 5545 5550 5556 5560 5563 5565 5567 5569 5570 5570 5569 5569 5569
5505 5500 5496 5492 5489 5486 5484 5482 5481 5480 5480 5481 5480 5478 5478 5482 5483 5485 5487 5489 5492 5495 5498 5502 5507 5512 5519 5526 5533 5539 5545 5550 5554 5558 5560 5562 5564 5565 5566 5566 5566 5566 5566
5512 5508 5504 5499 5496 5493 5491 5489 5487 5486 5486 5485 5484 5483 5483 5486 5487 5489 5491 5494 5496 5499 5502 5507 5512 5518 5523 5530 5537 5543 5549 5552 5555 5558 5560 5561 5562 5563 5564 5564 5564 5564 5565
5519 5515 5511 5507 5503 5501 5498 5496 5494 5492 5492 5491 5489 5489 5489 5491 5493 5494 5496 5499 5501 5504 5508 5513 5519 5525 5530 5536 5541 5546 5551 5554 5556 5559 5561 5562 5563 5563 5563 5563 5564 5564 5564
5525 5521 5517 5514 5510 5508 5505 5503 5501 5499 5497 5496 5496 5495 5496 5497 5499 5500 5503 5505 5508 5511 5516 5521 5527 5532 5537 5542 5546 5550 5553 5556 5559 5561 5562 5564 5564 5564 5564 5564 5564 5563 5563
5530 5527 5524 5520 5517 5514 5512 5510 5508 5506 5505 5504 5503 5503 5504 5505 5507 5509 5511 5514 5517 5521 5526 5531 5535 5539 5544 5548 5551 5553 5556 5558 5560 5562 5564 5564 5564 5564 5564 5565 5564 5564 5563